Location: Acheville
(50.3840°N, 2.8827°E)
Time: 00:51:50
(UTC+00:00)

FENGYUN 1C DEB - Visible Passes

Search period start: 03 February 2023 00:00
Search period end: 13 February 2023 00:00
Orbit: 633 x 943 km, 98.3° (Epoch: 02 February)

Date Brightness Start Highest point End Pass type
(mag) Time Alt. Az. Time Alt. Az. Time Alt. Az.
03 Feb ? 05:10:59 10° ENE 05:13:14 14° E 05:15:30 10° ESE visible
03 Feb ? 18:12:14 10° SSW 18:16:43 32° W 18:20:56 10° NNW visible
04 Feb ? 06:18:52 10° NNE 06:23:12 58° ESE 06:27:36 10° S visible
04 Feb ? 17:41:36 10° S 17:46:31 57° WSW 17:51:06 10° NNW visible
05 Feb ? 05:49:04 10° NNE 05:52:59 31° E 05:56:57 10° SSE visible
05 Feb ? 18:53:43 10° WSW 18:56:26 15° W 18:59:03 10° NW visible
06 Feb ? 05:19:43 10° NE 05:22:37 17° E 05:25:33 10° SE visible
06 Feb ? 18:22:00 10° SSW 18:26:05 26° W 18:29:58 10° NW visible
07 Feb ? 06:28:04 10° NNE 06:32:28 72° ESE 06:37:00 10° S visible
07 Feb ? 17:51:09 10° S 17:55:50 46° W 18:00:15 10° NNW visible
08 Feb ? 05:58:09 10° NNE 06:02:17 38° E 06:06:32 10° SSE visible
08 Feb ? 17:20:50 10° SSE 17:25:42 85° WSW 17:30:14 10° NNW visible
08 Feb ? 19:04:14 10° WSW 19:05:51 12° W 19:07:25 10° WNW visible
09 Feb ? 05:28:36 10° NE 05:31:59 21° E 05:35:26 10° SE visible
09 Feb ? 18:31:50 10° SW 18:35:26 21° W 18:38:54 10° NW visible
10 Feb ? 05:00:08 10° ENE 05:01:33 11° E 05:02:59 10° ESE visible
10 Feb ? 18:00:44 10° SSW 18:05:08 37° W 18:09:20 10° NNW visible
11 Feb ? 06:07:16 10° NNE 06:11:34 47° E 06:16:03 10° S visible
11 Feb ? 17:30:14 10° S 17:34:57 70° WSW 17:39:25 10° NNW visible
12 Feb ? 05:37:33 10° NE 05:41:18 26° E 05:45:12 10° SSE visible
12 Feb ? 18:41:45 10° SW 18:44:46 17° W 18:47:44 10° NW visible
